Home > Weather > Flint > Past weeks

Flag for USA Weather for the Past 2 Weeks in Flint, Michigan, USA

Now
52 °F

Passing clouds.


Feels Like: 52 °F
Forecast: 41 / 73 °F
Wind: 3 mph from Northwest

Location: Bishop International Airport

Current Time: May 6, 2016 at 2:14:14 AM

Latest Report: May 6, 2016 at 12:53 AM


Visibility: 10 mi

Pressure: 29.93 "Hg

Humidity: 59%

Dew Point: 38 °F

Location of FlintLocation

Historic Weather in Flint — Graph

°F

Flint Temperature Yesterday

Maximum temperature yesterday: 67 °F (at 4:53 PM)
Minimum temperature yesterday: 46 °F (at 5:53 AM)
Average temperature yesterday: 56 °F

High & Low Weather Summary for the Past Weeks

 TemperatureHumidityPressure
High75 °F (Apr 25, 3:53 PM)90% (Apr 22, 5:53 AM)30.25 "Hg (Apr 22, 5:53 AM)
Low32 °F (Apr 27, 6:53 AM)25% (Apr 23, 5:53 PM)29.55 "Hg (May 4, 12:53 PM)
Average52 °F61%29.96 "Hg
* Reported Apr 20 11:53 PM — May 5 11:53 PM, Flint, Weather by CustomWeather, © 2016

Note: Actual official high and low records may vary slightly from our data, if they occured in-between our weather recording intervals... More about our weather records

Advertising

Flint Weather History for the Previous 24 Hours

Scroll right to see more
 ConditionsComfort  
Time TempWeatherWind HumidityBarometerVisibility
11:53 PM
Thu, May 5
51 °FPassing clouds.3 mph66%29.92 "Hg10 mi
10:53 PM54 °FPassing clouds.No wind55%29.92 "Hg10 mi
9:53 PM60 °FClear.5 mph39%29.91 "Hg10 mi
8:53 PM60 °FSunny.7 mph39%29.90 "Hg10 mi
7:53 PM63 °FSunny.12 mph38%29.88 "Hg10 mi
6:53 PM66 °FSunny.16 mph36%29.88 "Hg10 mi
5:53 PM67 °FSunny.14 mph37%29.89 "Hg10 mi
4:53 PM67 °FSunny.14 mph36%29.90 "Hg10 mi
3:53 PM66 °FSunny.17 mph43%29.90 "Hg10 mi
2:53 PM64 °FSunny.12 mph52%29.90 "Hg10 mi
1:53 PM61 °FSunny.13 mph60%29.91 "Hg10 mi
12:53 PM61 °FSunny.12 mph60%29.91 "Hg10 mi
11:53 AM59 °FPassing clouds.12 mph62%29.92 "Hg10 mi
10:53 AM55 °FOvercast.14 mph72%29.92 "Hg10 mi
9:53 AM54 °FScattered clouds.8 mph69%29.90 "Hg10 mi
8:53 AM52 °FPassing clouds.12 mph75%29.87 "Hg10 mi
7:53 AM49 °FSunny.8 mph80%29.86 "Hg10 mi
6:53 AM46 °FClear.8 mph83%29.85 "Hg10 mi
5:53 AM46 °FPassing clouds.8 mph83%29.83 "Hg10 mi
4:53 AM47 °FLow clouds.13 mph83%29.81 "Hg10 mi
3:53 AM48 °FLow clouds.12 mph80%29.80 "Hg10 mi
2:53 AM48 °FPassing clouds.8 mph83%29.79 "Hg9 mi
Weather by CustomWeather, © 2016

See weather overviewHow to use our weather pages